sat.trackr.live / text

‹ back to catalog

STARLINK-5123

NORAD 53979 · 2022-125R

PAYLOAD ACTIVE UNKNOWN

§ Identity

Operator
Country
US
Launch date
2022-10-05
Launch site
AFWTR
Launch vehicle
Mass (kg)
RCS (m²)

Purposes: comms

External: N2YO · Heavens-Above · Gunter

§ Orbital elements

Epoch: 2026-09-20T22:01:50.997504Z

Period
94.01 min
Inclination
53.1622°
Eccentricity
0.0001281
Mean motion
15.31691598 rev/d
Perigee alt
469.9 km
Apogee alt
471.6 km
Semi-major
6,848.9 km
B*
-3.6095e-5
RAAN
55.8478°
Arg perigee
82.7800°
Mean anomaly
277.3347°
Rev number
21,895

§ Raw data

STARLINK-51231 53979U 22125R   26263.91795136 -.00001485  00000+0 -36095-4 0  99912 53979  53.1622  55.8478 0001281  82.7800 277.3347 15.31691598218954

JSON: /api/v1/satellites/53979 · /tle

For live sub-satellite position, see the globe view (requires WebGL).

§ Visibility from observer

Set your observer location to see the next 7 days of passes ≥ 10°. The values pass through the URL so the page stays shareable.

No JS? Fill the form by hand. The geolocation button needs JavaScript.